This demonstration page uses our WeatherBlox Daily Observations layout. Learn more.

Left ArrowRight Arrow

31.31129, -92.44514

Hourly Observations for December 4, 2022

Temp ( °F °C ) Dew Point ( °F °C ) Humidity (%) Winds ( mph kmh ) Pressure ( in mb ) Visibility ( mi km ) Precip ( " mm )
12:53 am 00:53 Mostly Cloudy 55 12.8 44 6.7 66 66 NNE 5 7 30.32 1027 10 16 0.00 0.00
1:53 am 01:53 Cloudy 54 12.2 44 6.7 69 69 NE 5 7 30.30 1026 10 16 0.00 0.00
2:53 am 02:53 Cloudy 54 12.2 42 5.6 64 64 NE 8 13 30.30 1026 10 16 0.00 0.00
3:09 am 03:09 Cloudy 54 12.2 43 6.1 66 66 N 5 7 30.29 1026 10 16 0.00 0.00
3:40 am 03:40 Cloudy 54 12.2 43 6.1 66 66 NNE 3 6 30.27 1025 10 16 0.00 0.00
3:53 am 03:53 Cloudy 54 12.2 43 6.1 66 66 NE 3 6 30.28 1025 10 16 0.00 0.00
4:53 am 04:53 Cloudy 53 11.7 43 6.1 68 68 NNE 5 7 30.27 1025 10 16 0.00 0.00
5:44 am 05:44 Cloudy 53 11.7 43 6.1 68 68 N 6 9 30.26 1025 10 16 0.00 0.00
5:53 am 05:53 Cloudy 53 11.7 43 6.1 68 68 NNE 5 7 30.27 1025 10 16 0.00 0.00
6:29 am 06:29 Cloudy 53 11.7 42 5.6 66 66 NE 5 7 30.27 1025 10 16 0.00 0.00
6:53 am 06:53 Cloudy 53 11.7 43 6.1 68 68 NNE 5 7 30.29 1026 10 16 0.00 0.00
7:53 am 07:53 Cloudy 53 11.7 42 5.6 66 66 NNE 5 7 30.30 1026 10 16 0.00 0.00
8:53 am 08:53 Cloudy 54 12.2 43 6.1 66 66 N 5 7 30.31 1027 10 16 0.00 0.00
9:53 am 09:53 Cloudy 55 12.8 44 6.7 66 66 VRB 3 6 30.31 1026 10 16 0.00 0.00
10:53 am 10:53 Cloudy 56 13.3 45 7.2 66 66 Calm 30.28 1026 10 16 0.00 0.00
11:53 am 11:53 Cloudy 58 14.4 46 7.8 65 65 Calm 30.26 1025 10 16 0.00 0.00
12:35 pm 12:35 Cloudy 59 15 48 8.9 67 67 Calm 30.22 1023 10 16 0.00 0.00
12:53 pm 12:53 Cloudy 59 15 48 8.9 67 67 Calm 30.22 1023 10 16 0.00 0.00
1:53 pm 13:53 Sunny 62 16.7 50 10 65 65 SSW 5 7 30.18 1022 10 16 0.00 0.00
2:53 pm 14:53 Partly Cloudy 63 17.2 51 10.6 65 65 Calm 30.16 1021 10 16 0.00 0.00
3:53 pm 15:53 Partly Cloudy 64 17.8 52 11.1 65 65 SSW 3 6 30.15 1021 10 16 0.00 0.00
4:53 pm 16:53 Sunny 62 16.7 53 11.7 72 72 SSE 5 7 30.12 1020 10 16 0.00 0.00
5:53 pm 17:53 Clear 59 15 52 11.1 77 77 Calm 30.13 1020 10 16 0.00 0.00
6:53 pm 18:53 Cloudy 61 16.1 52 11.1 72 72 NE 8 13 30.15 1021 10 16 0.00 0.00
7:53 pm 19:53 Cloudy 60 15.6 53 11.7 78 78 SE 6 9 30.14 1021 10 16 0.00 0.00
8:40 pm 20:40 Cloudy 61 16.1 53 11.7 75 75 E 3 6 30.13 1020 10 16 0.00 0.00
8:53 pm 20:53 Cloudy 60 15.6 53 11.7 78 78 ESE 5 7 30.13 1020 10 16 0.00 0.00
9:37 pm 21:37 Cloudy 60 15.6 53 11.7 78 78 ESE 5 7 30.12 1020 10 16 0.00 0.00
9:53 pm 21:53 Cloudy 60 15.6 52 11.1 75 75 ESE 6 9 30.13 1020 10 16 0.00 0.00
10:29 pm 22:29 Cloudy 59 15 52 11.1 77 77 ESE 6 9 30.11 1020 10 16 0.00 0.00
10:53 pm 22:53 Cloudy 59 15 52 11.1 77 77 ESE 3 6 30.11 1020 10 16 0.00 0.00
11:16 pm 23:16 Cloudy 59 15 52 11.1 77 77 ESE 3 6 30.09 1019 10 16 0.00 0.00
11:23 pm 23:23 Cloudy 59 15 52 11.1 77 77 ESE 3 6 30.09 1019 10 16 0.00 0.00
11:53 pm 23:53 Cloudy 59 15 53 11.7 81 81 ESE 7 11 30.08 1019 10 16 0.00 0.00

Powered by AerisWeather